www.pogodaiklimat.ru

Погода и климат >> Архив погоды >> Россия >> Якутия >> Бестяхская Звероферма


ПОГОДА в Бестяхской Звероферме

  • Прогноз погоды в Бестяхской Звероферме
  • Монитор погоды в Бестяхской Звероферме

АРХИВ ПОГОДЫ в Бестяхской Звероферме

Время (UTC), дата Ветер
(напр.,м/с)
 
Видим.   Явления Облачность Т
(С)
Тd
(С)
f
(%)
Тe
(С)
Тes
(С)
Комфортность P
(гПа)
Po
(гПа)
Тmin
(С)
Tmax
(С)
R
(мм)
R24
(мм)
S
(см)
06 17.02 В 1 50 км ясно -22.0 -26.1 69 -25 -25 1010.8 1000.7
09 17.02 штиль 0 50 км 3/0
[Ci fib]
-27.9 -31.7 70 -28 -28 1010.9 1000.6
12 17.02 штиль 0 50 км 3/0
[Cc]
-34.6 -37.4 76 -35 -35 опасность
обморожения
1011.1 1000.6 -21.5
15 17.02 штиль 0 50 км 4/0
[Cc]
-37.2 -40.1 74 -37 -37 опасность
обморожения
1010.7 999.9
18 17.02 СЗ 1 50 км 5/0
[Cc]
-38.1 -40.9 75 -43 -43 опасность
обморожения
1010.4 999.6
21 17.02 штиль 0 50 км 8/0
[Cc]
-38.8 -42.5 68 -39 -39 опасность
обморожения
1010.5 999.7
00 18.02 штиль 0 50 км 10/0
[Ci]
-39.3 -42.9 68 -39 -39 опасность
обморожения
1011.2 1000.4 -39.5 47
03 18.02 ЮВ 1 50 км 8/0
[Ci fib]
-30.8 -34.6 69 -35 -34 опасность
обморожения
1011.8 1001.5
06 18.02 В 1 50 км 10/0
[Cs]
-26.9 -30.7 70 -31 -30 опасность
обморожения
1012.3 1002.0
09 18.02 ЮВ 1 50 км 10/0
[Ac trans Cs]
-26.9 -30.0 75 -31 -31 опасность
обморожения
1012.8 1002.5
12 18.02 ЮВ 1 50 км 9/0
[Ac trans Cs]
-28.1 -31.2 75 -32 -32 опасность
обморожения
1013.5 1003.2 -25.8
15 18.02 ЮВ 1 50 км 10/0
[Ac trans Cs]
-27.5 -30.7 74 -31 -31 опасность
обморожения
1013.6 1003.3
18 18.02 ЮВ 1 20 км слаб. снег 9/0
[Ac trans Cs]
-28.6 -31.7 75 -33 -33 опасность
обморожения
1013.5 1003.2
21 18.02 ЮВ 2 20 км слаб. снег 10/0
[Ac trans Cs]
-26.0 -29.1 75 -33 -33 опасность
обморожения
1013.4 1003.3
00 19.02 ЮВ 1 20 км слаб. снег 10/0
[Ac trans Cs]
-26.2 -29.4 74 -30 -30 1013.6 1003.5 -30.5 0.4 47
03 19.02 ЮВ 2 50 км {снег} 10/0
[Cc]
-23.4 -26.6 75 -30 -29 1013.7 1003.6
06 19.02 ЮВ 2 50 км {снег} 10/0
[Cs]
-22.8 -26.8 70 -29 -29 1013.1 1003.0
09 19.02 ЮВ 1 20 км слаб. снег 10/0
[Ac trans Cs]
-21.9 -25.2 75 -25 -25 1013.0 1002.9
12 19.02 В 1 20 км слаб. снег 10/0
[Ac trans Cs]
-22.5 -25.7 75 -26 -26 1013.8 1003.7 -21.5 0.3
15 19.02 В 1 50 км {снег} 8/0
[Ci fib]
-25.7 -28.8 75 -29 -29 1014.6 1004.5
18 19.02 штиль 0 50 км {снег} 10/0
[Ac trans Ci fib]
-29.1 -32.2 74 -29 -29 1016.1 1005.7
21 19.02 штиль 0 20 км слаб. снег 10/0
[Ac trans Cs]
-28.6 -31.7 75 -29 -29 1017.5 1007.1
00 20.02 штиль 0 20 км слаб. снег 10/0
[Ac trans Cs]
-27.4 -30.5 75 -27 -27 1018.7 1008.3 -29.6 0.3 47
03 20.02 Ю 2 50 км {снег} 3/0
[Ci fib]
-22.8 -26.1 74 -29 -28 1019.5 1009.3
06 20.02 ЮВ 1 50 км {снег} 1/0
[Ci fib]
-19.7 -24.6 65 -23 -22 1019.5 1009.5
09 20.02 штиль 0 50 км ясно -23.2 -27.2 70 -23 -23 1020.2 1010.0
12 20.02 З 1 50 км ясно -31.5 -34.5 75 -36 -36 опасность
обморожения
1020.6 1010.0 -19.2 0.0
15 20.02 СЗ 1 50 км 8/0
[Ac trans Ci fib]
-32.4 -35.5 74 -37 -37 опасность
обморожения
1020.9 1010.3
18 20.02 СЗ 1 50 км 4/0
[Ci fib]
-34.7 -37.7 74 -39 -39 опасность
обморожения
1020.5 1009.9
21 20.02 З 1 20 км слаб. снег 10/0
[Cs]
-34.7 -37.7 74 -39 -39 опасность
обморожения
1019.9 1009.3
00 21.02 СЗ 1 50 км {снег} 6/0
[Ac trans Ci fib]
-36.2 -39.0 75 -41 -41 опасность
обморожения
1019.9 1009.3 -36.2 0.0 47
03 21.02 штиль 0 50 км 3/0
[Ci fib]
-26.8 -30.7 69 -27 -25 1019.6 1009.2 -36.4
06 21.02 В 1 50 км 6/0
[Cc]
-23.4 -28.2 65 -27 -26 1019.3 1009.1
09 21.02 штиль 0 50 км 1/0
[Ac trans]
-26.0 -29.8 70 -26 -26 1020.0 1009.8
12 21.02 Ю 1 50 км ясно -31.4 -34.3 75 -36 -36 опасность
обморожения
1020.6 1010.2 -22.8
15 21.02 Ю 1 50 км 4/0
[Ci fib]
-28.4 -31.5 75 -32 -32 опасность
обморожения
1020.7 1010.3
18 21.02 штиль 0 50 км 6/0
[Ci fib]
-31.6 -34.5 75 -32 -32 опасность
обморожения
1021.2 1010.6
21 21.02 штиль 0 20 км слаб. снег 10/0
[Ac trans Cs]
-28.9 -32.1 74 -29 -29 1020.8 1010.4
00 22.02 Ю 1 20 км слаб. снег 10/0
[Ac trans Cs]
-28.6 -31.7 75 -33 -32 опасность
обморожения
1020.6 1010.2 -32.6 0.3 47
03 22.02 штиль 0 20 км слаб. снег 10/0
[Ac cast Cc]
-25.3 -28.5 75 -25 -24 1020.7 1010.5
06 22.02 СВ 1 20 км слаб. снег 10/0
[Ac trans Cs]
-22.5 -26.5 70 -26 -25 1020.1 1009.9
09 22.02 СВ 1 50 км {снег} 10/0
[Ac trans Cs]
-23.9 -27.1 75 -27 -27 1020.6 1010.4
12 22.02 С 1 50 км {снег} 6/0
[Ci fib]
-26.4 -29.6 74 -30 -30 1020.9 1010.7 -22.2 0.3
15 22.02 СЗ 1 50 км 3/0
[Ci fib]
-32.7 -35.8 74 -37 -37 опасность
обморожения
1021.3 1010.7
18 22.02 СЗ 2 50 км ясно -30.5 -33.6 74 -38 -38 опасность
обморожения
1020.2 1009.8
21 22.02 СЗ 1 50 км ясно -30.1 -33.2 74 -34 -34 опасность
обморожения
1019.9 1009.5
00 23.02 СЗ 2 50 км 3/0
[Ci fib]
-31.7 -34.8 74 -39 -39 опасность
обморожения
1019.8 1009.2 -33.1 47
03 23.02 СЗ 2 50 км 4/0
[Ci fib]
-25.7 -28.8 75 -32 -31 опасность
обморожения
1019.2 1009.0
06 23.02 СЗ 1 50 км 4/0
[Ci fib]
-22.4 -26.4 70 -26 -25 1018.4 1008.2
09 23.02 З 1 50 км 6/0
[Ac trans Ci fib]
-25.3 -28.5 75 -29 -29 1018.8 1008.6
12 23.02 С 1 50 км 6/0
[Ac trans Ci fib]
-32.6 -35.5 75 -37 -37 опасность
обморожения
1018.8 1008.2 -21.7
15 23.02 штиль 0 50 км 10/0
[Cs]
-35.3 -38.4 73 -35 -35 опасность
обморожения
1018.2 1007.6
18 23.02 ЮВ 1 50 км 10/0
[Ac trans Cs]
-32.6 -35.5 75 -37 -37 опасность
обморожения
1016.6 1006.0
21 23.02 Ю 1 20 км слаб. снег 9/0
[Ac trans Cs]
-30.5 -33.6 74 -35 -35 опасность
обморожения
1014.5 1004.2
00 24.02 ЮВ 1 20 км слаб. снег 10/0
[Ac trans Cs]
-28.6 -31.7 75 -33 -32 опасность
обморожения
1013.3 1003.0 -35.3 0.2 47
03 24.02 ЮВ 1 20 км слаб. снег 10/0
[Ac trans Cs]
-26.4 -29.6 74 -30 -29 1012.2 1002.1

 

Местоположение метеостанции Бестяхская Звероферма (Якутия, Россия): широта 65.30 долгота 124.10 высота над уровнем моря 73 м.

В архиве по умолчанию представлена погода в Бестяхской Звероферме за последнюю неделю. Архивные данные за месяц целиком и за предыдущие месяцы, начиная с января 2011 года, Вы можете получить, выбрав интересующий диапазон дат из раскрывающегося списка и нажав кнопку "Ввод!".


*Определитесь, кто Вы:
робот инопланетянин человек

Внимание! Время в таблицах - всемирное. Для получения местного времени необходимо прибавить поправку, которая равна 9 ч.

Смотрите также архив погоды в соседних городах и на ближайших метеорологических станциях:

Погода в Хатырык-Хомо (Якутия, Россия) (154 км)
Погода в Сого-Хае (Якутия, Россия) (157 км)
Погода в Жиганске (Якутия, Россия) (169 км)
Погода в Вилюйске (Якутия, Россия) (208 км)
Погода в Сангаре (Якутия, Россия) (217 км)
Погода в Себян-Кюеле (Якутия, Россия) (274 км)
Погода в Верхневилюйске (Якутия, Россия) (278 км)
Погода в Эйке (Якутия, Россия) (317 км)
Погода в Батамае (Якутия, Россия) (322 км)
Погода в Сеген-Кюеле (Якутия, Россия) (329 км)

Пояснения к столбцам:

Ветер - указаны скорость ветра в м/с - средняя за 10 мин, порывы в срок и между сроками (в фигурных скобках) и направление, откуда дует ветер: С - северный, СВ - северо-восточный, В - восточный, ЮВ - юго-восточный, Ю - южный, ЮЗ - юго-западный, З - западный, СЗ - северо-западный.
Видимость - горизонтальная дальность видимости в метрах или километрах. При видимости от 1 до 10 км при отсутствии осадков обычно наблюдается дымка, при ухудшении видимости до 1 км и менее - туман. В сухую погоду видимость может ухудшаться дымом, пылью или мглою.
Явления - указаны атмосферные явления, наблюдавшиеся в срок или в последний час перед сроком; фигурными скобками обозначены явления, наблюдавшиеся между сроками (за 1-3 часа до срока); квадратными скобками обозначены град или гололедные отложения с указанием их диаметра в мм.
Облачность - указаны через наклонную черту общая и нижняя облачность в баллах и высота нижней границы облаков в метрах; квадратными скобками обозначены формы облаков: Ci - перистые, Cs - перисто-слоистые, Cc - перисто-кучевые, Ac - высококучевые, As - высокослоистые, Sc - слоисто-кучевые, Ns - слоисто-дождевые, Cu - кучевые, Cb - кучево-дождевые. Подробнее классификацию облаков см. в Атласе облаков (PDF).
T - Температура воздуха - температура, измеренная на высоте 2 м над землей.
Td - Температура точки росы - температура, при понижении до которой содержащийся в воздухе водяной пар достигнет насыщения.
f - Относительная влажность воздуха - влажноcть воздуха, измеренная на высоте 2 м над землей.
Te - Эффективная температура - температура, которую ощущает одетый по сезону человек в тени. Характеристика душности погоды. При расчете учитывается влияние влажности воздуха и скорости ветра на теплоощущения человека.
Tes - Эффективная температура на солнце - температура, которую ощущает человек, с поправкой на солнечный нагрев. Характеристика знойности погоды. Зависит от высоты солнца над горизонтом, облачности и скорости ветра. Ночью, в пасмурную погоду, а также при ветре 12 м/с и более поправка равна нулю.
P - Атмосферное давление - приведенное к уровню моря атмосферное давление.
Po - Атмосферное давление - измеренное на уровне метеостанции атмосферное давление.
Tmin - Минимальная температура - минимум температуры воздуха на высоте 2 м над землей.
Tmax - Максимальная температура - максимум температуры воздуха на высоте 2 м над землей.
R - Количество осадков - Количество выпавших осадков за период времени, мм. При наведении курсора мыши на число - период времени, за который выпало указанное количество осадков.
R24 - Количество осадков - Количество выпавших осадков за 24 часа, мм.
S - Снежный покров - Высота снежного покрова, см. При наведении курсора мыши на число - состояние снежного покрова и степень покрытия местности в баллах.